Location: Brabourne
(51.1333°N, 1.0000°E)
Time: 08:33:18
(UTC+00:00)

Cosmos 1408 - Pass Details

Date: 20 June 2021
Orbit: 466 x 492 km, 82.6° (Epoch: 02 August)

Event Time Altitude Azimuth Distance (km) Brightness Sun altitude
Exits shadow 00:19:25 27° 154° (SSE) 982 3.6 -15.3°
Maximum altitude 00:21:04 47° 95° (E) 663 3.2 -15.3°
Drops below altitude 10° 00:24:39 10° 21° (NNE) 1,698 6.6 -15.2°
Sets 00:26:49 0° 15° (NNE) 2,587 8.1 -15.2°
